Regional Weather Roundup
Issued by NWS

Home | Current Version | Previous Version | Graphics & Text | Print | Product List | Glossary On
Versions: 1 2 3 4 5 6 7 8 9 10 11 12 13 14 15 16 17 18 19 20 21 22 23 24 25 26 27 28 29 30 31 32 33 34 35 36 37 38 39 40 41 42 43 44 45 46 47 48 49 50
000
ASUS43 KIND 150709
RWRIN

WEATHER ROUNDUP FOR INDIANA
NATIONAL WEATHER SERVICE INDIANAPOLIS IN
200 AM EST FRI DEC 15 2017

NOTE: "FAIR" INDICATES FEW OR NO CLOUDS BELOW 12,000 FEET WITH NO
SIGNIFICANT WEATHER AND/OR OBSTRUCTIONS TO VISIBILITY.

* - STATION DOES NOT REPORT WEATHER SUCH AS PRECIPITATION OR FOG.

+ - STATION NOT QUALITY CONTROLLED BY THE NATIONAL WEATHER SERVICE.
    USE DATA WITH CAUTION...ESPECIALLY DEWPOINT AND RELATIVE
    HUMIDITY OBSERVATIONS.

INZ001>003-010>013-019-020-150800-
NORTHWEST INDIANA

CITY           SKY/WX    TMP DP  RH WIND       PRES   REMARKS
GARY /AIRPORT/ CLOUDY    21  13  71 CALM      30.02F
KNOX *+        CLOUDY    16  14  93 SW5       30.02F WCI   9
LA PORTE +     CLOUDY   N/A N/A N/A CALM      30.00F
MICHIGAN CITY+ CLOUDY    19  10  68 SW7       30.00F WCI  10
MONTICELLO +   PTCLDY    17  11  80 CALM      30.02F
RENSSELAER +   CLOUDY    18  12  79 CALM      30.02F
VALPARAISO     CLEAR     15  10  80 CALM      30.00F

$$

LMZ046-743>745-150800-
SOUTHERN LAKE MICHIGAN

STATION/POSITION TIME  TEMP    WIND        PRES    WAVE
                       AIR SEA DIR/SP/G            HT
                 (UTC) (F)     (DEG/KT/KT) (MB)    (FT)
BURNS HARBOR     0704   21     200/  7/ 10 1016.6
MICHIGAN CITY    0640   22     190/ 12/ 13   N/A

$$

INZ004-005-014>016-021>024-150800-
NORTH CENTRAL INDIANA

CITY           SKY/WX    TMP DP  RH WIND       PRES   REMARKS
GOSHEN         MOCLDY    18  11  74 SW9       29.99F WCI   7
LOGANSPORT +   CLOUDY    21  14  73 SW3       30.02F
PERU/GRISSOM   MOCLDY    22  15  77 S6        30.00  WCI  14
ROCHESTER +    CLOUDY    25  18  74 CALM      30.01F
SOUTH BEND     CLOUDY    15  12  88 SW8       29.99F WCI   4
WARSAW +       CLOUDY    21  14  73 W3        30.01F

$$

INZ006>009-017-018-025>027-150800-
NORTHEAST INDIANA

CITY           SKY/WX    TMP DP  RH WIND       PRES   REMARKS
AUBURN +       CLOUDY    21  14  73 CALM      30.01F
FORT WAYNE     FLURRIES  22  15  75 S8        30.01F WCI  12
HUNTINGTON +   CLOUDY    23  14  68 S3        30.01F
KENDALLVILLE + CLOUDY    20  12  71 SW8       29.98F WCI  11

$$

INZ028-029-035-036-043>045-051>053-150800-
WEST CENTRAL INDIANA

CITY           SKY/WX    TMP DP  RH WIND       PRES   REMARKS
CRAWFORDSVL +  CLOUDY    23  17  78 SW5         N/A  WCI  17
GREENCASTLE +  CLOUDY    27  14  59 CALM      30.04F
LAFAYETTE      CLOUDY    20  16  84 W5        30.03F WCI  13
TERRE HAUTE    CLOUDY    28  18  66 W3        30.06F

$$

INZ030>032-037>040-046>048-054>057-064-065-150800-
CENTRAL INDIANA

CITY           SKY/WX    TMP DP  RH WIND       PRES   REMARKS
FRANKFORT +    CLOUDY    26  17  71 SW5       30.03F WCI  20
GREENWOOD *+   MOCLDY    24  18  75 S3        30.05F
INDIANAPOLIS   CLOUDY    24  15  68 S6        30.04F WCI  17
-EAGLE CREEK   CLOUDY    25  15  66 S3        30.03F
KOKOMO +       MOCLDY    23  16  74 S7        30.02F WCI  15
MARION +       CLOUDY    23  16  76 S8        30.02F WCI  13
MT COMFORT *+  CLOUDY    19  18  93 S5        30.03F WCI  13
SHELBYVILLE    CLOUDY    19  13  77 S6        30.04F WCI  11
ZIONSVILLE +   CLOUDY    23  17  78 S7        30.03F WCI  14

$$

INZ033-034-041-042-049-050-058-059-150800-
EAST CENTRAL INDIANA

CITY           SKY/WX    TMP DP  RH WIND       PRES   REMARKS
MUNCIE         CLOUDY    23  13  65 S7        30.02F WCI  15
RICHMOND +     PTCLDY    16  14  93 S3        30.03F

$$

INZ060-061-067>069-081>083-085>088-150800-
SOUTHWEST INDIANA

CITY           SKY/WX    TMP DP  RH WIND       PRES   REMARKS
EVANSVILLE     CLOUDY    31  23  72 W3        30.09F
HUNTINGBURG +  CLOUDY    29  23  78 W3        30.07F
WASHINGTON +   CLOUDY    27  22  80 CALM      30.07F

$$

INZ062-063-066-070>080-084-089>092-150800-
SOUTH CENTRAL AND SOUTHEAST INDIANA

CITY           SKY/WX    TMP DP  RH WIND       PRES   REMARKS
BEDFORD +      CLOUDY    23  16  74 CALM      30.06F
BLOOMINGTON    CLOUDY    22  16  78 CALM      30.05F
MADISON *+     PTCLDY    23  18  80 CALM      30.07F
NORTH VERNON + CLOUDY    21  18  86 CALM      30.07F
SEYMOUR +      CLOUDY    23  18  80 CALM      30.07F

$$





USA.gov is the U.S. government's official web portal to all federal, state and local government web resources and services.